Location: Arroyo Retuerta
(40.5469°N, 4.3534°W)
Time: 06:01:52
(UTC+00:00)

EO 1 Del DPAF - Pass Details

Date: 01 June 2020
Orbit: 513 x 517 km, 98.0° (Epoch: 05 July)

Event Time Altitude Azimuth Distance (km) Brightness Sun altitude
Rises 23:14:18 0° 8° (N) 2,648 7.9 -25.6°
Reaches altitude 10° 23:16:25 10° 4° (N) 1,755 6.8 -25.8°
Enters shadow 23:19:25 47° 329° (NNW) 697 4.1 -25.9°
